Погода в Зонтхофене

Германия     47°31′10″N   10°16′54″E
темп.,
°C
ветер,
м/с
пор.,
м/с
влажн.,
%
обл.,
%
осадки,
мм/ч
давл.,
гПа
погр.,
м
4 декабря, сб
сб401:00−3ююв3379100 0.0 101043
04:00−1юз2386100 0.2 100756
07:000ю3687100 3.1 1006145
10:00+2ю3695100 6.1 1004172
13:00+2ю3497100 8.3 100285
16:00+2ю23100100 4.1 100170
19:00+2юз21297100 8.1 1003935
22:000зюз23100100 3.8 1003223
5 декабря, вс
вс501:00−2зюз3994100 11.4 1009788
04:00−3ю2395100 0.3 100868
07:00−4ю2294100 0.8 100852
10:00−2юз1290100 0.3 1007100
13:00−1ссз1187100 0.3 1006384
16:00−2ссз1199100 1.0 1007105
19:00−3ссз1299100 3.3 1009130
22:00−5ю1199100 0.6 101010
6 декабря, пн
пн601:00−5ююв1198100 0.9 101213
04:00−6ююв119799 0.3 101419
07:00−4ююз119791 0.5 101528
10:00−3зюз119597 0.3 1017164
13:00−2сз118677 0.5 1016495
16:00−5юз119776 0.1 101823
19:00−9ююв339199 0.1 101940
22:00−8ююв3385100 0.0 101838
7 декабря, вт
вт701:00−7ю2287100 0.1 101624
04:00−5ююз3696100 2.9 1017256
07:00−3зюз2998100 7.5 1017879
10:00−3з2897100 2.2 1018691
13:00−2зюз1296100 5.5 1017286
16:00−5ююз119737 1.3 101610
19:00−9ююв348993 1.3 101641
22:00−10ююв44844 0.0 101348
8 декабря, ср
ср801:00−8ююв4476100 0.0 100850
04:00−5ю3381100 0.0 100644
07:00−5ююв2283100 0.1 100729
10:00−3ююв1184100 0.1 100539
13:00−2сз1186100 0.4 1004239
16:00−3ю1196100 0.3 100534
19:00−4ююз1298100 1.9 1006106
22:00−4ююз1198100 1.4 100636